FW8542 Weather Reports


time (UTC)temp
C
wind
direction
speed
KPH
gust
KPH
rain 1hr
cm
rain 24hr
cm
rain mn
cm
humidity
%
barometer
mb
20260508100904 15 158 1.6 8.0 0.00 0.00 0.00 66 1010.4
20260508100004 15 192 3.2 14.5 0.00 0.00 0.00 65 1010.5
20260508095404 15 173 3.2 12.9 0.00 0.00 0.00 64 1010.5
20260508094504 15 182 4.8 12.9 0.00 0.00 0.00 65 1010.5
20260508093604 15 171 3.2 8.0 0.00 0.00 0.00 67 1010.5
20260508092726 14 157 4.8 12.9 0.00 0.00 0.00 67 1010.4
20260508091825 14 159 6.4 14.5 0.00 0.00 0.00 68 1010.4
20260508090904 13 163 4.8 12.9 0.00 0.00 0.00 71 1010.5
20260508090004 13 151 4.8 9.7 0.00 0.00 0.00 72 1010.5
20260508085425 13 159 4.8 9.7 0.00 0.00 0.00 70 1010.4
20260508084504 13 151 4.8 8.0 0.00 0.00 0.00 71 1010.3
20260508083625 13 164 4.8 12.9 0.00 0.00 0.00 72 1010.3
20260508082705 13 165 3.2 8.0 0.00 0.00 0.00 72 1010.4
20260508081804 13 172 3.2 8.0 0.00 0.00 0.00 73 1010.4
20260508080904 12 160 3.2 8.0 0.00 0.00 0.00 74 1010.4
20260508080004 12 154 3.2 8.0 0.00 0.00 0.00 75 1010.3
20260508075404 12 154 3.2 8.0 0.00 0.00 0.00 75 1010.2
20260508074504 12 160 3.2 8.0 0.00 0.00 0.00 76 1010.2
20260508073603 11 156 4.8 9.7 0.00 0.00 0.00 79 1010.2
20260508072703 11 151 3.2 8.0 0.00 0.00 0.00 78 1010.1
20260508071804 11 161 4.8 11.3 0.00 0.00 0.00 80 1009.9
20260508070904 10 159 4.8 12.9 0.00 0.00 0.00 80 1009.9
20260508070004 10 161 4.8 16.1 0.00 0.00 0.00 81 1009.9
20260508065404 10 160 6.4 16.1 0.00 0.00 0.00 81 1009.8
20260508064504 10 163 4.8 16.1 0.00 0.00 0.00 82 1009.8
20260508063603 9 160 4.8 12.9 0.00 0.00 0.00 83 1009.6
20260508062703 9 158 4.8 12.9 0.00 0.00 0.00 83 1009.5
20260508061803 8 172 3.2 8.0 0.00 0.00 0.00 84 1009.5
20260508060903 8 174 1.6 6.4 0.00 0.00 0.00 84 1009.3
20260508060003 8 162 3.2 8.0 0.00 0.00 0.00 84 1009.3
20260508055403 8 161 3.2 8.0 0.00 0.00 0.00 84 1009.4
20260508054504 8 204 0.0 4.8 0.00 0.00 0.00 84 1009.3
20260508053603 8 179 1.6 6.4 0.00 0.00 0.00 85 1009.3
20260508052703 8 180 3.2 6.4 0.00 0.00 0.00 85 1009.2
20260508051804 8 170 3.2 8.0 0.00 0.00 0.00 84 1009.1
20260508050903 8 184 1.6 6.4 0.00 0.00 0.00 84 1009.2
20260508050003 8 160 3.2 8.0 0.00 0.00 0.00 85 1009.1
20260508045403 8 160 1.6 6.4 0.00 0.00 0.00 85 1009.1
20260508044503 8 164 1.6 6.4 0.00 0.00 0.00 85 1009.0
20260508043603 8 169 3.2 6.4 0.00 0.00 0.00 85 1009.0
20260508042707 8 164 1.6 6.4 0.00 0.00 0.00 85 1009.0
20260508041807 8 164 0.0 6.4 0.00 0.00 0.00 85 1008.9
20260508040907 8 164 0.0 3.2 0.00 0.00 0.00 85 1008.9
20260508040007 7 159 0.0 3.2 0.00 0.00 0.00 85 1008.8
20260508035407 7 170 0.0 3.2 0.00 0.00 0.00 85 1008.8
20260508034507 8 156 1.6 4.8 0.00 0.00 0.00 85 1008.9
20260508033628 8 163 0.0 8.0 0.00 0.00 0.00 85 1008.9
20260508032707 8 115 0.0 1.6 0.00 0.00 0.00 85 1008.9
20260508031807 8 119 0.0 3.2 0.00 0.00 0.00 85 1008.9
20260508030928 7 0 0.0 0.0 0.00 0.00 0.00 85 1008.9
20260508030027 7 0 0.0 0.0 0.00 0.00 0.00 85 1008.9
20260508025407 7 0 0.0 0.0 0.00 0.00 0.00 85 1008.8
20260508024506 7 257 0.0 4.8 0.00 0.00 0.00 84 1008.8
20260508023607 8 215 1.6 4.8 0.00 0.00 0.00 84 1008.9
20260508022727 8 148 0.0 3.2 0.00 0.00 0.00 84 1008.9
20260508021806 8 168 1.6 6.4 0.00 0.00 0.00 84 1008.9
20260508020927 8 164 3.2 6.4 0.00 0.00 0.00 83 1008.7
20260508020027 8 166 4.8 8.0 0.00 0.00 0.00 83 1008.5
20260508015406 8 165 4.8 8.0 0.00 0.00 0.00 83 1008.6
20260508014506 8 166 4.8 8.0 0.00 0.00 0.00 83 1008.5
20260508013606 8 170 3.2 6.4 0.00 0.00 0.00 83 1008.6
20260508012706 8 168 3.2 6.4 0.00 0.00 0.00 82 1008.5
20260508011806 8 165 3.2 6.4 0.00 0.00 0.00 82 1008.5
20260508010906 8 164 3.2 11.3 0.00 0.00 0.00 82 1008.5
20260508010006 9 164 3.2 8.0 0.00 0.00 0.00 81 1008.7
20260508005406 9 160 3.2 8.0 0.00 0.00 0.00 81 1008.7
20260508004506 9 162 3.2 9.7 0.00 0.00 0.00 81 1008.7
20260508003606 9 156 3.2 8.0 0.00 0.00 0.00 80 1008.7
20260508002707 9 155 3.2 8.0 0.00 0.00 0.00 80 1008.8
20260508001806 9 175 3.2 8.0 0.00 0.00 0.00 79 1008.9
20260508000907 10 165 4.8 9.7 0.00 0.00 0.00 79 1008.8
20260508000006 10 163 4.8 14.5 0.00 0.00 0.00 79 1008.9
20260507235407 10 163 6.4 12.9 0.00 0.00 0.00 79 1008.8
20260507234506 10 163 6.4 14.5 0.00 0.00 0.00 79 1008.7
20260507233606 10 159 4.8 14.5 0.00 0.00 0.00 79 1008.7
20260507232706 10 168 4.8 12.9 0.00 0.00 0.00 78 1008.7
20260507231806 10 168 4.8 9.7 0.00 0.00 0.00 78 1008.6
20260507230927 10 165 4.8 14.5 0.00 0.00 0.00 77 1008.6
20260507230027 10 163 4.8 12.9 0.00 0.00 0.00 76 1008.5
20260507225406 10 167 6.4 12.9 0.00 0.00 0.00 75 1008.6
20260507224506 10 166 6.4 12.9 0.00 0.00 0.00 74 1008.5
20260507223627 10 174 4.8 14.5 0.00 0.00 0.00 74 1008.6
20260507222706 10 167 6.4 14.5 0.00 0.00 0.00 73 1008.5
20260507221806 10 163 6.4 12.9 0.00 0.00 0.00 73 1008.5
20260507220906 11 164 6.4 14.5 0.00 0.00 0.00 73 1008.4
20260507220007 11 161 6.4 14.5 0.00 0.00 0.00 72 1008.5
20260507215406 11 165 6.4 14.5 0.00 0.00 0.00 72 1008.6
20260507214527 11 163 8.0 16.1 0.00 0.00 0.00 72 1008.6
20260507213607 11 166 8.0 17.7 0.00 0.00 0.00 72 1008.6
20260507212706 11 163 8.0 17.7 0.00 0.00 0.00 72 1008.6
20260507211806 11 167 4.8 12.9 0.00 0.00 0.00 73 1008.5
20260507210906 11 160 4.8 12.9 0.00 0.00 0.00 73 1008.4
20260507210006 11 159 3.2 9.7 0.00 0.00 0.00 73 1008.4
20260507205406 11 163 3.2 11.3 0.00 0.00 0.00 73 1008.3
20260507204506 11 166 4.8 12.9 0.00 0.00 0.00 73 1008.4
20260507203605 11 161 3.2 6.4 0.00 0.00 0.00 72 1008.3
20260507202705 11 161 1.6 6.4 0.00 0.00 0.00 72 1008.3
20260507201805 11 158 0.0 3.2 0.00 0.00 0.00 71 1008.2
20260507200907 11 173 0.0 3.2 0.00 0.00 0.00 71 1008.2
20260507200006 11 168 0.0 1.6 0.00 0.00 0.00 71 1008.2
20260507195406 11 166 0.0 4.8 0.00 0.00 0.00 71 1008.1
20260507194505 11 164 1.6 4.8 0.00 0.00 0.00 71 1008.0
20260507193605 11 169 1.6 4.8 0.00 0.00 0.00 71 1007.9
20260507192705 11 171 1.6 6.4 0.00 0.00 0.00 70 1007.9
20260507191806 11 174 3.2 6.4 0.00 0.00 0.00 69 1007.8
20260507190906 11 164 3.2 8.0 0.00 0.00 0.00 69 1007.8
20260507190006 11 170 3.2 6.4 0.00 0.00 0.00 69 1007.6
20260507185405 11 164 3.2 11.3 0.00 0.00 0.00 69 1007.6
20260507184505 12 166 4.8 9.7 0.00 0.00 0.00 68 1007.6
20260507183605 12 167 3.2 8.0 0.00 0.00 0.00 68 1007.6
20260507182705 12 170 3.2 9.7 0.00 0.00 0.00 67 1007.6
20260507181805 12 165 3.2 8.0 0.00 0.00 0.00 68 1007.6
20260507180905 12 168 3.2 9.7 0.00 0.00 0.00 68 1007.6
20260507180027 12 161 3.2 8.0 0.00 0.00 0.00 68 1007.6
20260507175426 12 165 3.2 8.0 0.00 0.00 0.00 68 1007.5
20260507174505 12 171 3.2 8.0 0.00 0.00 0.00 68 1007.7
20260507173605 12 166 1.6 6.4 0.00 0.00 0.00 69 1007.6
20260507172705 12 165 1.6 4.8 0.00 0.00 0.00 68 1007.6
20260507171805 12 159 3.2 6.4 0.00 0.00 0.00 69 1007.6
20260507170906 12 158 3.2 8.0 0.00 0.00 0.00 68 1007.7
20260507170005 12 163 4.8 14.5 0.00 0.00 0.00 68 1007.8
20260507165405 12 158 6.4 14.5 0.00 0.00 0.00 68 1007.8
20260507164505 12 161 4.8 11.3 0.00 0.00 0.00 68 1007.9
20260507163605 12 153 4.8 11.3 0.00 0.00 0.00 68 1007.9
20260507162705 12 158 4.8 12.9 0.00 0.00 0.00 68 1007.9
20260507161826 12 158 4.8 11.3 0.00 0.00 0.00 69 1008.0
20260507160905 12 158 3.2 11.3 0.00 0.00 0.00 70 1008.1
20260507160005 12 156 4.8 12.9 0.00 0.00 0.00 69 1008.1
20260507155405 12 154 4.8 12.9 0.00 0.00 0.00 71 1008.2
20260507154505 11 152 4.8 8.0 0.00 0.00 0.00 70 1008.2
20260507153605 11 154 4.8 12.9 0.00 0.00 0.00 71 1008.3
20260507152705 11 168 3.2 8.0 0.00 0.00 0.00 71 1008.3
20260507151826 11 158 3.2 8.0 0.00 0.00 0.00 71 1008.5
20260507150905 11 160 3.2 9.7 0.00 0.00 0.00 71 1008.4
20260507150027 11 178 4.8 12.9 0.00 0.00 0.00 71 1008.4
20260507145405 11 169 6.4 16.1 0.00 0.00 0.00 70 1008.6
20260507144506 11 165 6.4 16.1 0.00 0.00 0.00 70 1008.6
20260507143605 11 170 4.8 14.5 0.00 0.00 0.00 70 1008.6
20260507142705 11 167 4.8 14.5 0.00 0.00 0.00 70 1008.7
20260507141826 11 171 4.8 11.3 0.00 0.00 0.00 71 1008.7
20260507140926 11 170 4.8 12.9 0.00 0.00 0.00 71 1008.8
20260507140025 11 163 6.4 16.1 0.00 0.00 0.00 71 1008.8
20260507135405 11 162 6.4 16.1 0.00 0.00 0.00 70 1008.8
20260507134504 11 157 8.0 19.3 0.00 0.00 0.00 70 1008.9
20260507133604 11 167 4.8 8.0 0.00 0.00 0.00 73 1009.0
20260507132704 11 170 4.8 12.9 0.00 0.00 0.00 74 1009.0
20260507131805 11 166 6.4 16.1 0.00 0.00 0.00 73 1009.0
20260507130927 11 163 6.4 16.1 0.00 0.00 0.00 73 1009.0
20260507130005 11 165 6.4 16.1 0.00 0.00 0.00 73 1008.9
20260507125404 11 164 6.4 17.7 0.00 0.00 0.00 73 1008.9
20260507124504 11 168 8.0 19.3 0.00 0.00 0.00 72 1009.0
20260507123625 11 162 9.7 19.3 0.00 0.00 0.00 73 1008.8
20260507122706 11 164 6.4 16.1 0.00 0.00 0.00 72 1008.9
20260507121804 11 162 6.4 16.1 0.00 0.00 0.00 73 1008.7
20260507120904 11 161 8.0 19.3 0.00 0.00 0.00 70 1008.9
20260507120005 11 167 6.4 16.1 0.00 0.00 0.00 70 1009.0
20260507115404 11 165 8.0 16.1 0.00 0.00 0.00 71 1009.0
20260507114504 11 158 8.0 19.3 0.00 0.00 0.00 71 1009.0
20260507113604 11 163 8.0 22.5 0.00 0.00 0.00 71 1009.0
20260507112704 11 156 9.7 19.3 0.00 0.00 0.00 71 1009.1
20260507111805 11 159 8.0 19.3 0.00 0.00 0.00 73 1009.0
20260507110904 11 156 8.0 17.7 0.00 0.00 0.00 72 1009.1
20260507110005 11 157 8.0 16.1 0.00 0.00 0.00 76 1009.2
20260507105404 10 158 8.0 17.7 0.00 0.00 0.00 76 1009.1
20260507104504 10 159 8.0 16.1 0.00 0.00 0.00 75 1009.3
20260507103625 9 155 8.0 17.7 0.00 0.00 0.00 77 1009.4
20260507102704 10 164 8.0 16.1 0.00 0.00 0.00 78 1009.2
20260507101804 9 163 6.4 16.1 0.00 0.00 0.00 78 1009.4